Location: Lesignano de� Bagni
(44.6500°N, 10.3000°E)
Time: 10:56:22
(UTC+00:00)

ATLAS CENTAUR R/B - Pass Details

Date: 03 March 2021
Orbit: 475 x 670 km, 64.7° (Epoch: 30 March)

Event Time Altitude Azimuth Distance (km) Brightness Sun altitude
Rises 18:18:05 0° 208° (SSW) 2,523 5.0 -13.0°
Reaches altitude 10° 18:20:13 10° 206° (SSW) 1,640 4.0 -13.4°
Maximum altitude 18:23:49 68° 123° (ESE) 514 0.9 -14.0°
Enters shadow 18:27:02 13° 41° (NE) 1,481 3.2 -14.6°
